Weather History for K2WX - September, 2013

Change the Weather History Date:

Thursday, September 12, 2013

  Actual Average Record
Temperature  
Mean Temperature 67 °F 60 °F  
Max Temperature 79 °F 75 °F 93 °F (2004)
Min Temperature 54 °F 46 °F 29 °F (2014)
Degree Days  
Heating Degree Days 0 6  
Month to date heating degree days 0 56  
Since 1 July heating degree days 12 108  
Cooling Degree Days 2 2  
Month to date cooling degree days 88 32  
Year to date cooling degree days 575 503  
Growing Degree Days 16 (Base 50)    
Moisture  
Dew Point 48 °F    
Average Humidity 55    
Maximum Humidity 77    
Minimum Humidity 33    
Precipitation  
Precipitation 0.00 in 0.04 in 0.38 in (2005)
Month to date precipitation 1.76 0.51  
Year to date precipitation 11.24 12.65  
Sea Level Pressure  
Sea Level Pressure 30.19 in    
Wind  
Wind Speed 9 mph (East)    
Max Wind Speed 16 mph    
Max Gust Speed 20 mph    
T = Trace of Precipitation, MM = Missing Value Source: NWS Daily Summary

Daily Weather History Graph

Daily Weather History Graph

Search for Another Location

Airport or City:

Trip Planner

Search our weather history database for the weather conditions in past years. The results will help you decide how hot, cold, wet, or windy it might be!

Date:

Astronomy

Sep. 12, 2013 Rise Set
Actual Time 6:29 AM MDT 7:10 PM MDT
Civil Twilight 5:59 AM MDT 7:40 PM MDT
Nautical Twilight 5:23 AM MDT 8:15 PM MDT
Astronomical Twilight 4:46 AM MDT 8:52 PM MDT
Moon 2:18 PM MDT (9/12) 11:48 PM MDT (9/12)
Length of Visible Light 13h 41m
Length of Day
12h 41m
Waxing Crescent, 51% of the Moon is Illuminated
Sep 12
Waxing Crescent
Sep 19
Full
Sep 26
Last Quarter
Oct 4
New
Oct 11
First Quarter

Hourly Weather History & Observations

Time (MDT) Temp. Dew Point Humidity Pressure Visibility Wind Dir Wind Speed Gust Speed Precip Events Conditions
12:56 AM 57.9 °F 50.0 °F 75% 30.19 in - NE 6.9 mph - N/A   Unknown
1:56 AM 55.9 °F 48.9 °F 77% 30.20 in - NE 8.1 mph - N/A   Unknown
2:56 AM 57.0 °F 48.0 °F 72% 30.21 in - ENE 4.6 mph - N/A   Unknown
3:56 AM 55.9 °F 46.9 °F 72% 30.21 in - NE 5.8 mph - N/A   Unknown
4:56 AM 55.0 °F 46.9 °F 74% 30.22 in - NE 6.9 mph - N/A   Unknown
5:56 AM 55.0 °F 46.0 °F 72% 30.23 in - ENE 3.5 mph - N/A   Unknown
6:56 AM 55.0 °F 46.9 °F 74% 30.25 in - East 3.5 mph - N/A   Unknown
7:56 AM 57.9 °F 50.0 °F 75% 30.27 in - ENE 4.6 mph - N/A   Unknown
8:56 AM 63.0 °F 48.9 °F 60% 30.26 in - SE 5.8 mph - N/A   Unknown
9:56 AM 66.9 °F 51.1 °F 57% 30.27 in - East 4.6 mph - N/A   Unknown
10:56 AM 72.0 °F 48.9 °F 44% 30.25 in - SE 9.2 mph - N/A   Unknown
11:56 AM 73.9 °F 46.9 °F 38% 30.23 in - ESE 10.4 mph 17.3 mph N/A   Unknown
12:56 PM 75.9 °F 46.0 °F 35% 30.21 in - South 13.8 mph 18.4 mph N/A   Unknown
1:56 PM 75.9 °F 46.9 °F 36% 30.19 in - East 10.4 mph 19.6 mph N/A   Unknown
2:56 PM 78.1 °F 48.0 °F 35% 30.17 in - SE 13.8 mph 19.6 mph N/A   Unknown
3:56 PM 77.0 °F 46.9 °F 34% 30.15 in - ESE 9.2 mph - N/A   Unknown
4:56 PM 77.0 °F 48.0 °F 36% 30.14 in - SE 15.0 mph - N/A   Unknown
5:56 PM 75.9 °F 46.9 °F 36% 30.13 in - SE 11.5 mph - N/A   Unknown
6:56 PM 70.0 °F 48.0 °F 46% 30.14 in - SE 11.5 mph - N/A   Unknown
7:56 PM 64.9 °F 48.9 °F 56% 30.14 in - East 11.5 mph - N/A   Unknown
8:56 PM 62.1 °F 48.9 °F 62% 30.14 in - East 10.4 mph - N/A   Unknown
9:56 PM 63.0 °F 48.9 °F 60% 30.13 in - East 12.7 mph - N/A   Unknown
10:56 PM 60.1 °F 48.9 °F 67% 30.12 in - ESE 8.1 mph - N/A   Unknown
11:56 PM 60.1 °F 46.9 °F 62% 30.11 in - SE 10.4 mph - N/A   Unknown